Weather History for Hartsville, SC

Change the Weather History Date:

Thursday, February 21, 2013

  Actual Average (KFLO) Record (KFLO)
Temperature  
Mean Temperature 46 °F 50 °F  
Max Temperature 60 °F 61 °F 81 °F (1997)
Min Temperature 33 °F 39 °F 21 °F (1959)
Degree Days  
Heating Degree Days 18 15  
Month to date heating degree days 363  
Since 1 July heating degree days 1965  
Cooling Degree Days 0 0  
Month to date cooling degree days 0  
Year to date cooling degree days 2  
Moisture  
Dew Point 22 °F    
Average Humidity 40    
Maximum Humidity 93    
Minimum Humidity 22    
Precipitation  
Precipitation 0.00 in 0.11 in 1.04 in (1954)
Month to date precipitation 2.17  
Year to date precipitation 5.40  
Sea Level Pressure  
Sea Level Pressure 30.16 in    
Wind  
Wind Speed 5 mph (NE)    
Max Wind Speed 10 mph    
Max Gust Speed 17 mph    
Visibility 10 miles    
Events      
T = Trace of Precipitation, MM = Missing Value Source: NWS Daily Summary

Daily Weather History Graph

Daily Weather History Graph

Search for Another Location

Airport:

Trip Planner

Search our weather history database for the weather conditions in past years. The results will help you decide how hot, cold, wet, or windy it might be!

Date:

Astronomy

Feb. 21, 2013 Rise Set
Actual Time 6:58 AM EST 6:09 PM EST
Civil Twilight 6:33 AM EST 6:35 PM EST
Nautical Twilight 6:04 AM EST 7:04 PM EST
Astronomical Twilight 5:35 AM EST 7:33 PM EST
Moon 2:29 PM EST (2/21) 3:55 AM EST (2/21)
Length of Visible Light 12h 01m
Length of Day
11h 10m
Waxing Gibbous, 83% of the Moon is Illuminated
Feb 21
Waxing Gibbous
Feb 25
Full
Mar 4
Last Quarter
Mar 11
New
Mar 19
First Quarter

Hourly Weather History & Observations

Time (EST) Temp. Windchill Dew Point Humidity Pressure Visibility Wind Dir Wind Speed Gust Speed Precip Events Conditions
12:15 AM 35.6 °F - 32.0 °F 87% 30.10 in 10.0 mi Calm Calm - N/A   Clear
12:35 AM 35.6 °F - 33.8 °F 93% 30.11 in 10.0 mi Calm Calm - N/A   Clear
12:55 AM 41.0 °F 38.0 °F 32.0 °F 70% 30.12 in 10.0 mi NNW 4.6 mph - N/A   Clear
1:15 AM 41.0 °F 36.4 °F 28.4 °F 61% 30.12 in 10.0 mi North 6.9 mph - N/A   Clear
1:35 AM 41.0 °F 35.8 °F 24.8 °F 53% 30.13 in 10.0 mi NNE 8.1 mph - N/A   Clear
1:55 AM 41.0 °F 35.2 °F 21.2 °F 45% 30.12 in 10.0 mi NE 9.2 mph - N/A   Clear
2:15 AM 41.0 °F 35.8 °F 19.4 °F 42% 30.12 in 10.0 mi NE 8.1 mph - N/A   Clear
2:35 AM 41.0 °F 35.8 °F 19.4 °F 42% 30.12 in 10.0 mi NE 8.1 mph - N/A   Clear
2:55 AM 41.0 °F 36.4 °F 17.6 °F 39% 30.13 in 10.0 mi NE 6.9 mph - N/A   Clear
3:15 AM 39.2 °F 33.0 °F 17.6 °F 42% 30.13 in 10.0 mi NE 9.2 mph - N/A   Clear
3:35 AM 37.4 °F 31.4 °F 17.6 °F 45% 30.14 in 10.0 mi NE 8.1 mph - N/A   Clear
3:55 AM 37.4 °F 32.1 °F 19.4 °F 48% 30.14 in 10.0 mi NE 6.9 mph - N/A   Clear
4:15 AM 37.4 °F 30.3 °F 17.6 °F 45% 30.14 in 10.0 mi NE 10.4 mph - N/A   Clear
4:35 AM 37.4 °F 31.4 °F 15.8 °F 41% 30.14 in 10.0 mi NE 8.1 mph 17.3 mph N/A   Clear
4:55 AM 37.4 °F 32.1 °F 17.6 °F 45% 30.15 in 10.0 mi NE 6.9 mph - N/A   Clear
5:15 AM 35.6 °F 30.7 °F 17.6 °F 48% 30.16 in 10.0 mi NE 5.8 mph - N/A   Scattered Clouds
5:35 AM 35.6 °F 30.7 °F 17.6 °F 48% 30.16 in 10.0 mi NE 5.8 mph - N/A   Clear
5:55 AM 35.6 °F 29.9 °F 17.6 °F 48% 30.17 in 10.0 mi NE 6.9 mph - N/A   Clear
6:15 AM 35.6 °F 30.7 °F 17.6 °F 48% 30.17 in 10.0 mi NE 5.8 mph - N/A   Clear
6:55 AM 33.8 °F 27.0 °F 17.6 °F 52% 30.18 in 10.0 mi NE 8.1 mph - N/A   Clear
7:15 AM 35.6 °F 28.6 °F 17.6 °F 48% 30.19 in 10.0 mi NE 9.2 mph - N/A   Clear
7:35 AM 35.6 °F 29.2 °F 15.8 °F 44% 30.19 in 10.0 mi NE 8.1 mph - N/A   Clear
7:55 AM 37.4 °F 32.1 °F 17.6 °F 45% 30.21 in 10.0 mi NE 6.9 mph - N/A   Clear
8:15 AM 39.2 °F 33.6 °F 17.6 °F 42% 30.21 in 10.0 mi ENE 8.1 mph - N/A   Clear
8:35 AM 41.0 °F 35.8 °F 15.8 °F 36% 30.22 in 10.0 mi NE 8.1 mph - N/A   Clear
8:55 AM 41.0 °F 34.7 °F 15.8 °F 36% 30.23 in 10.0 mi NE 10.4 mph 16.1 mph N/A   Clear
9:15 AM 42.8 °F 37.0 °F 15.8 °F 34% 30.24 in 10.0 mi ENE 10.4 mph 16.1 mph N/A   Clear
9:35 AM 44.6 °F 39.7 °F 17.6 °F 34% 30.23 in 10.0 mi NE 9.2 mph - N/A   Clear
9:55 AM 44.6 °F 40.2 °F 15.8 °F 31% 30.22 in 10.0 mi NE 8.1 mph - N/A   Clear
10:15 AM 46.4 °F 42.9 °F 15.8 °F 29% 30.23 in 10.0 mi NE 6.9 mph - N/A   Clear
10:35 AM 46.4 °F 45.2 °F 14.0 °F 27% 30.23 in 10.0 mi ESE 3.5 mph - N/A   Clear
10:55 AM 50.0 °F - 15.8 °F 26% 30.22 in 10.0 mi ENE 8.1 mph - N/A   Clear
11:15 AM 50.0 °F - 15.8 °F 26% 30.22 in 10.0 mi Calm Calm - N/A   Clear
11:35 AM 51.8 °F - 17.6 °F 26% 30.21 in 10.0 mi Calm Calm - N/A   Clear
12:15 PM 51.8 °F - 17.6 °F 26% 30.19 in 10.0 mi Calm Calm - N/A   Clear
12:35 PM 53.6 °F - 17.6 °F 24% 30.18 in 10.0 mi Calm Calm - N/A   Clear
12:55 PM 53.6 °F - 19.4 °F 26% 30.17 in 10.0 mi Calm Calm - N/A   Clear
1:15 PM 55.4 °F - 19.4 °F 25% 30.15 in 10.0 mi ENE 4.6 mph - N/A   Clear
1:35 PM 55.4 °F - 19.4 °F 25% 30.15 in 10.0 mi SE 5.8 mph - N/A   Clear
1:55 PM 57.2 °F - 19.4 °F 23% 30.14 in 10.0 mi ENE 4.6 mph - N/A   Clear
2:15 PM 57.2 °F - 19.4 °F 23% 30.12 in 7.0 mi Calm Calm - N/A   Clear
2:35 PM 59.0 °F - 19.4 °F 22% 30.11 in 10.0 mi SSE 3.5 mph - N/A   Clear
2:55 PM 59.0 °F - 19.4 °F 22% 30.10 in 10.0 mi Calm Calm - N/A   Clear
3:15 PM 59.0 °F - 19.4 °F 22% 30.10 in 10.0 mi Calm Calm - N/A   Clear
3:35 PM 59.0 °F - 19.4 °F 22% 30.11 in 10.0 mi Calm Calm - N/A   Clear
3:55 PM 60.8 °F - 21.2 °F 22% 30.12 in 7.0 mi Calm Calm - N/A   Clear
4:15 PM 59.0 °F - 21.2 °F 23% 30.12 in 10.0 mi Calm Calm - N/A   Clear
4:35 PM 59.0 °F - 21.2 °F 23% 30.12 in 10.0 mi Calm Calm - N/A   Clear
4:55 PM 57.2 °F - 23.0 °F 27% 30.12 in 7.0 mi Calm Calm - N/A   Clear
5:15 PM 57.2 °F - 23.0 °F 27% 30.12 in 7.0 mi Calm Calm - N/A   Clear
5:35 PM 55.4 °F - 24.8 °F 31% 30.12 in 10.0 mi Calm Calm - N/A   Clear
5:55 PM 55.4 °F - 26.6 °F 33% 30.13 in 10.0 mi Calm Calm - N/A   Clear
6:15 PM 51.8 °F - 26.6 °F 38% 30.15 in 10.0 mi Calm Calm - N/A   Clear
6:35 PM 50.0 °F - 30.2 °F 47% 30.14 in 10.0 mi Calm Calm - N/A   Clear
6:55 PM 50.0 °F - 30.2 °F 47% 30.15 in 10.0 mi Calm Calm - N/A   Clear
7:15 PM 48.2 °F - 28.4 °F 46% 30.15 in 10.0 mi ENE 3.5 mph - N/A   Clear
7:35 PM 46.4 °F 45.2 °F 30.2 °F 53% 30.16 in 10.0 mi ENE 3.5 mph - N/A   Clear
7:55 PM 46.4 °F 44.3 °F 28.4 °F 50% 30.15 in 10.0 mi ENE 4.6 mph - N/A   Clear
8:15 PM 46.4 °F 43.5 °F 28.4 °F 50% 30.14 in 10.0 mi ENE 5.8 mph - N/A   Clear
8:35 PM 46.4 °F - 28.4 °F 50% 30.16 in 10.0 mi Calm Calm - N/A   Clear
8:55 PM 44.6 °F 41.4 °F 30.2 °F 57% 30.14 in 10.0 mi ENE 5.8 mph - N/A   Clear
9:15 PM 46.4 °F 45.2 °F 28.4 °F 50% 30.15 in 10.0 mi ENE 3.5 mph - N/A   Clear
9:35 PM 48.2 °F - 28.4 °F 46% 30.17 in 10.0 mi Calm Calm - N/A   Clear
10:15 PM 48.2 °F - 28.4 °F 46% 30.18 in 10.0 mi ENE 5.8 mph - N/A   Clear
10:35 PM 50.0 °F - 28.4 °F 43% 30.19 in 10.0 mi Calm Calm - N/A   Clear
10:55 PM 50.0 °F - 26.6 °F 40% 30.20 in 10.0 mi NE 3.5 mph - N/A   Scattered Clouds
11:15 PM 48.2 °F - 28.4 °F 46% 30.20 in 10.0 mi ENE 5.8 mph - N/A   Clear
11:35 PM 46.4 °F 43.5 °F 28.4 °F 50% 30.19 in 10.0 mi East 5.8 mph - N/A   Clear
11:55 PM 46.4 °F 43.5 °F 28.4 °F 50% 30.19 in 10.0 mi East 5.8 mph - N/A   Clear